Вернуться в каталог

CZ-6A DEB

АктивенSSO
NORAD 55006·DEBRIS·🇨🇳 China

Запущен Nov 11, 2022 с Taiyuan Satellite Launch Center

Loading…

Ближайшие Пролёты (ближайшие 24 часа)

TLE

СвежийSource: Space-Track

Эпоха: Sep 13, 2026, 22:22 UTC

1 55006U 22151UW  26256.93213611  .00000960  00000-0  50580-3 0  9990
2 55006  98.8253 259.9681 0043464  75.4270 285.1719 14.15848112196687

Отслеживайте CZ-6A DEB в реальном времени с AllMySat

Download on the App Store